FW0695 Weather Reports


Display with metric or nautical units.
time (UTC)temp
F
wind
direction
speed
MPH
gust
MPH
rain 1hr
in
rain 24hr
in
rain mn
in
humidity
%
barometer
mb
20260505024601 77 131 1.0 7.0 0.00 0.00 0.00 51 1003.0
20260505023056 75 133 2.0 5.0 0.00 0.00 0.00 54 1002.5
20260505021602 76 214 1.0 8.0 0.00 0.00 0.00 52 1002.7
20260505020059 77 120 2.0 5.0 0.00 0.00 0.00 51 1002.6
20260505014606 77 137 0.0 5.0 0.00 0.00 0.00 50 1002.8
20260505013059 78 0 1.0 5.0 0.00 0.00 0.00 49 1002.6
20260505011556 79 0 0.0 5.0 0.00 0.00 0.00 46 1002.2
20260505010100 79 0 0.0 5.0 0.00 0.00 0.00 44 1001.8
20260505004559 80 128 0.0 3.0 0.00 0.00 0.00 43 1001.6
20260505003057 81 155 1.0 6.0 0.00 0.00 0.00 42 1001.7
20260505001556 82 205 1.0 6.0 0.00 0.00 0.00 41 1001.6
20260505000059 83 128 1.0 8.0 0.00 0.00 0.00 39 1001.6
20260504234558 84 178 1.0 6.0 0.00 0.00 0.00 38 1001.7
20260504233058 84 180 2.0 7.0 0.00 0.00 0.00 36 1002.0
20260504231559 85 113 3.0 10.0 0.00 0.00 0.00 36 1001.8
20260504230058 86 126 1.0 8.0 0.00 0.00 0.00 34 1001.7
20260504224559 87 84 0.0 5.0 0.00 0.00 0.00 33 1001.7
20260504223102 87 126 0.0 4.0 0.00 0.00 0.00 32 1001.8
20260504221558 87 79 1.0 6.0 0.00 0.00 0.00 31 1001.9
20260504214605 88 105 1.0 6.0 0.00 0.00 0.00 27 1002.2
20260504213058 87 96 2.0 4.0 0.00 0.00 0.00 27 1002.4
20260504211556 88 160 1.0 5.0 0.00 0.00 0.00 27 1002.5
20260504210106 86 75 2.0 8.0 0.00 0.00 0.00 29 1002.8
20260504204623 86 97 2.0 7.0 0.00 0.00 0.00 28 1002.9
20260504203134 87 83 1.0 6.0 0.00 0.00 0.00 30 1003.2
20260504201557 85 102 2.0 6.0 0.00 0.00 0.00 34 1003.4
20260504200058 85 0 1.0 5.0 0.00 0.00 0.00 33 1003.6
20260504194559 84 101 2.0 5.0 0.00 0.00 0.00 35 1003.7
20260504193101 84 93 2.0 5.0 0.00 0.00 0.00 35 1003.9
20260504191604 85 146 1.0 5.0 0.00 0.00 0.00 30 1004.1
20260504190118 84 0 1.0 4.0 0.00 0.00 0.00 33 1004.3
20260504184602 85 100 2.0 6.0 0.00 0.00 0.00 29 1004.3
20260504183103 86 158 1.0 8.0 0.00 0.00 0.00 32 1004.5
20260504181606 86 74 1.0 4.0 0.00 0.00 0.00 31 1004.8
20260504180126 84 28 2.0 5.0 0.00 0.00 0.00 29 1005.1
20260504174558 84 300 0.0 5.0 0.00 0.00 0.00 29 1005.1
20260504173108 85 155 1.0 2.0 0.00 0.00 0.00 31 1005.1
20260504171612 82 0 1.0 3.0 0.00 0.00 0.00 33 1005.2
20260504160106 77 220 0.0 4.0 0.00 0.00 0.00 43 1005.1
20260504110109 60 214 0.0 4.0 0.00 0.00 0.00 62 1004.9
20260504100105 62 128 1.0 6.0 0.00 0.00 0.00 57 1005.6
20260504081559 66 222 2.0 9.0 0.00 0.00 0.00 48 1006.0
20260504060104 69 235 2.0 10.0 0.00 0.00 0.00 41 1007.3
20260504044559 69 173 1.0 5.0 0.00 0.00 0.00 39 1007.7
20260504043101 69 181 1.0 5.0 0.00 0.00 0.00 39 1007.8
20260504041609 69 169 1.0 6.0 0.00 0.00 0.00 38 1007.7
20260504034625 69 212 1.0 5.0 0.00 0.00 0.00 37 1007.7
20260504033100 70 167 0.0 4.0 0.00 0.00 0.00 38 1007.7
20260504031559 71 122 1.0 5.0 0.00 0.00 0.00 36 1007.8
20260504030058 72 183 1.0 5.0 0.00 0.00 0.00 36 1007.7